Regional Weather Roundup
Issued by NWS

Home | Current Version | Previous Version | Graphics & Text | Print | Product List | Glossary On
Versions: 1 2 3 4 5 6 7 8 9 10 11 12 13 14 15 16 17 18 19 20 21 22 23 24 25 26 27 28 29 30 31 32 33 34 35 36 37 38 39 40 41 42 43 44 45 46 47 48 49 50
000
ASUS45 KTFX 301019
RWRMT
MONTANA HOURLY WEATHER ROUNDUP
NATIONAL WEATHER SERVICE GREAT FALLS MT
319 AM MST FRI JAN 30 2015

NOTE: "FAIR" INDICATES FEW OR NO CLOUDS BELOW 12000 FEET WITH NO
SIGNIFICANT WEATHER AND/OR OBSTRUCTIONS TO VISIBILITY.

* THESE STATIONS ARE NOT UNDER NWS QUALITY CONTROL. THEY DO NOT
   REPORT WEATHER SUCH AS PRECIPITATION OR FOG.

MTZ001>007-043-301100-
WEST OF THE DIVIDE
CITY           SKY/WX    TMP DP  RH WIND       PRES   REMARKS
KALISPELL      FOG       12  10  92 CALM      30.37S VSB M1/4
MISSOULA       CLEAR     19  16  88 CALM      30.37R
BUTTE          PTCLDY    18  16  92 CALM      30.28S
MULLAN PASS    CLEAR     28  21  75 NW7       30.26S WCI  21
* ANACONDA     PTCLDY    25  18  75 SW3        N/A
* ESSEX        N/A       14  11  88 N/A        N/A
* EUREKA APT   CLEAR     21  19  92 N3        30.40S VSB 1/2
* HAMILTON APT PTCLDY    25  21  85 S3        30.33R
* LIBBY APT    CLEAR     25  21  85 CALM      30.41S
* LINCOLN      N/A       15  12  88 NE1        N/A
* LOOKOUT PASS N/A       26  23  88 NW4        N/A
* POLSON       N/A       23  22  96 N2         N/A
* RONAN APT    CLEAR     19  18  96 N/A        N/A
* SEELEY LAKE  N/A        9   6  87 NE1        N/A
* THOMP F APT  CLEAR     29  22  75 N6         N/A   WCI  23
$$

MTZ008-052>055-301100-
SOUTHWEST MONTANA
CITY           SKY/WX    TMP DP  RH WIND       PRES   REMARKS
BOZEMAN        MOCLDY    23  19  85 SE8       30.28F WCI  14
DILLON         PTCLDY    25  18  75 S10       30.28S WCI  15
* W YELLOWSTON MOCLDY    10   7  88 N/A        N/A
* THREE FORKS  PTCLDY   N/A N/A N/A N/A        N/A
* BOULDER HILL N/A       29  14  53 SW9        N/A   WCI  21
* MONIDA PASS  N/A       11  10  96 W4         N/A
* RAYNOLDS PAS N/A       17  -4  39 SE4        N/A
* WHITEHALL    N/A       24  20  85 E2         N/A
* WISE RIVER   N/A       15  11  84 NW4G10     N/A
$$

MTZ009>010-012-014-046-048-049-054-301100-
EAST SLOPES AND CENTRAL MONTANA
CITY           SKY/WX    TMP DP  RH WIND       PRES   REMARKS
CUT BANK       CLEAR     27  16  63 W9        30.19F WCI  18
GREAT FALLS    CLEAR     30  18  61 SW12      30.21R WCI  20
HELENA         CLEAR     27  21  78 CALM      30.28R
MALMSTROM AFB  CLEAR     28  19  69 W7        30.22R WCI  21
* CONRAD       CLEAR     21  16  81 CALM       N/A
* DEARBORN     N/A       30  21  69 S4         N/A
* EAST GLACIER N/A       32  14  47 W14        N/A   WCI  22
* MONARCH      N/A       27   9  46 S9G17      N/A   WCI  18
* PENDROY      N/A       33   2  26 NW8        N/A   WCI  26
* ROGERS PASS  N/A       28  19  69 SW2G11     N/A
* SWEET GRASS  N/A       35  10  35 W12        N/A   WCI  27
* WHITE SULPH  N/A       25  17  72 E5         N/A   WCI  19
$$

MTZ011-013-016-021-035-040-045-047-050-051-301100-
NORTH CENTRAL MONTANA
CITY           SKY/WX    TMP DP  RH WIND       PRES   REMARKS
HAVRE          CLEAR     25  21  85 W8        30.21R WCI  16
LEWISTOWN      CLEAR     28  14  56 CALM      30.20S
* N BAR RANCH  CLEAR     39   7  26 W8        30.18F WCI  33
* CHINOOK      CLEAR     21  19  92 CALM      30.21S
* CHESTER      N/A       25  20  81 NE1        N/A
* DENTON       N/A       25  18  75 SW4        N/A
* GEYSER       N/A       28  10  47 SW8        N/A   WCI  20
* JUDITH GAP   N/A       31  14  49 NW12       N/A   WCI  22
* LOMA         N/A       30  22  72 SW6        N/A   WCI  24
$$

MTZ017>020-022>027-061-062-301100-
NORTHEAST MONTANA
CITY           SKY/WX    TMP DP  RH WIND       PRES   REMARKS
GLASGOW        CLEAR     23  19  85 W5        30.17R WCI  16
GLENDIVE       CLEAR     28  21  75 S9        30.17F WCI  19
JORDAN         CLEAR     28  25  89 NW8       30.16F WCI  20
SIDNEY         CLEAR     25  19  78 S5        30.18S WCI  19
WOLF POINT     CLEAR     21  18  88 CALM      30.17S
* BEAVER HILL  N/A       33  20  59 S21G28     N/A   WCI  21
* CIRCLE       N/A       30  26  85 N/A        N/A
* LINDSAY DVD  N/A       37  25  62 W13G22     N/A   WCI  29
* NAVAJO       N/A       28  22  78 W8         N/A   WCI  20
* PLENTYWOOD A CLEAR     25  19  78 CALM      30.14F
* POPLAR APT   CLEAR     21  19  92 N/A       30.17S
* SACO         N/A       22  20  92 W5         N/A   WCI  15
$$

MTZ028>042-056>058-301100-
SOUTHCENTRAL AND SOUTHEAST MONTANA
CITY           SKY/WX    TMP DP  RH WIND       PRES   REMARKS
BAKER          PTCLDY    25  19  78 E5        30.20S WCI  19
BILLINGS       PTCLDY    36  28  73 SW15      30.21S WCI  27
LIVINGSTON     CLOUDY    37  19  48 W13       30.22F WCI  29
MILES CITY     CLEAR     27  21  78 S8        30.18F WCI  19
* BIG TIMBER A CLOUDY    37  19  48 SW20G25   30.21F WCI  27
* FORSYTH APT  CLEAR     34  25  70 SW7       30.19F WCI  28
* LAUREL APT   PTCLDY    34  25  70 SW5        N/A   WCI  29
* ROUNDUP APT  CLEAR     30  23  75 S5         N/A   WCI  25
* ALZADA       N/A       22  18  85 E1         N/A
* HYSHAM       N/A       33  24  70 W8         N/A   WCI  26
* LAME DEER    N/A       37  23  57 W11        N/A   WCI  29
* REED POINT   N/A       25  24  96 N/A        N/A
* ROSCOE HILL  N/A       35   4  27 S3         N/A
$$

REGIONAL REPORTS...DAKOTAS
CITY           SKY/WX    TMP DP  RH WIND       PRES   REMARKS
WILLISTON      CLEAR     21  18  88 SW3       30.17S
DICKINSON      PTCLDY    28  18  66 S15       30.15F WCI  16
BEACH          CLEAR     30  23  75 SW7       30.17F WCI  23
CROSBY         CLEAR     23  23 100 SW12      30.16F WCI  11
TIOGA          CLEAR     18  18 100 CALM      30.18F
WATFORD CITY   CLEAR     21  19  92 CALM      30.14F
BISMARCK       CLEAR     19  18  96 SE13      30.32F WCI   6
GRAND FORKS    CLOUDY     9   1  70 S7        30.48F WCI  -2
FARGO          MOCLDY    10   1  67 SE8       30.49F WCI  -2
BUFFALO SD     CLEAR     25  16  69 S7        30.15F WCI  17
RAPID CITY     PTCLDY    23  14  68 E5        30.23F WCI  16
$$

REGIONAL REPORTS...WYOMING/IDAHO/WASHINGTON
CITY           SKY/WX    TMP DP  RH WIND       PRES   REMARKS
GILLETTE       PTCLDY    27  21  78 SE6       30.20S WCI  20
SHERIDAN       MOCLDY    23  18  81 CALM      30.21F
CODY           PTCLDY    25  23  92 SW6       30.22S WCI  18
YELLOWSTONE LA MOCLDY     3   0  87 CALM      30.30S
SALMON         CLOUDY    23  21  92 CALM      30.37S
MULLAN PASS    CLEAR     28  21  75 NW7       30.26S WCI  21
SAND POINT     CLOUDY    27  27 100 CALM      30.39S
SPOKANE        FOG       28  27  96 CALM      30.35F VSB M1/4
$$

REGIONAL REPORTS...ALBERTA
CITY           SKY/WX    TMP DP  RH WIND       PRES   REMARKS
CALGARY        MOCLDY    25  16  69 VRB2      30.17R
LETHBRIDGE     CLEAR     25  19  78 W3        30.18S
MEDICINE HAT   FOG       23  23 100 W5        30.22R VSB 1/2  WCI  16
EDMONTON       PTCLDY    19  16  88 W3        30.19R
WATERTON GATE  N/A       36  18  48 SW24G37    N/A   WCI  24
CARDSTON       N/A       27  16  63 S3         N/A
MILK RIVER     N/A       25  18  75 NW6        N/A   WCI  18
$$

REGIONAL REPORTS...SASKATCHEWAN
CITY           SKY/WX    TMP DP  RH WIND       PRES   REMARKS
SWIFT CURRENT  MOCLDY    25  25 100 W13       30.15R WCI  13
REGINA         FAIR      12  10  92 SE8       30.15F
VAL MARIE      N/A       19  18  96 N2         N/A
ASSINIBOIA     N/A       21  19  92 W7         N/A   WCI  12
CORONACH       N/A       18  14  84 W1         N/A

$$




USA.gov is the U.S. government's official web portal to all federal, state and local government web resources and services.